Weather History for Oslo Airport, Norway

Change the Weather History Date:

Monday, October 21, 2013

  Actual Average Record
Temperature  
Mean Temperature 34 °F -  
Max Temperature 36 °F 38 °F 53 °F (2008)
Min Temperature 32 °F 29 °F 17 °F (2010)
Degree Days  
Heating Degree Days 31    
Moisture  
Dew Point 24 °F    
Average Humidity 67    
Maximum Humidity 100    
Minimum Humidity 49    
Precipitation  
Precipitation 0.08 in 0.12 in - ()
Sea Level Pressure  
Sea Level Pressure 30.03 in    
Wind  
Wind Speed 6 mph ()    
Max Wind Speed 9 mph    
Max Gust Speed -    
Visibility 5.8 miles    
Events Rain , Snow    
Averages and records for this station are not official NWS values.
T = Trace of Precipitation, MM = Missing Value Source: Averaged Metar Reports

Daily Weather History Graph

Daily Weather History Graph

Search for Another Location

Airport:

Trip Planner

Search our weather history database for the weather conditions in past years. The results will help you decide how hot, cold, wet, or windy it might be!

Date:

Astronomy

Oct. 21, 2013 Rise Set
Actual Time 8:10 AM CEST 5:48 PM CEST
Civil Twilight 7:27 AM CEST 6:32 PM CEST
Nautical Twilight 6:38 AM CEST 7:20 PM CEST
Astronomical Twilight 5:50 AM CEST 8:09 PM CEST
Moon 6:49 PM CEST (10/21) 11:07 AM CEST (10/21)
Length of Visible Light 11h 04m
Length of Day
9h 38m
Waning Gibbous, 94% of the Moon is Illuminated
Oct 21
Waning Gibbous
Oct 27
Last Quarter
Nov 3
New
Nov 10
First Quarter
Nov 17
Full

Hourly Weather History & Observations

Time (CEST) Temp. Windchill Dew Point Humidity Pressure Visibility Wind Dir Wind Speed Gust Speed Precip Events Conditions
12:20 AM 33.8 °F 28.6 °F 21.2 °F 60% 30.04 in - NE 5.8 mph - N/A   Clear
12:50 AM 33.8 °F 27.7 °F 21.2 °F 60% 30.04 in - NE 6.9 mph - N/A   Clear
1:20 AM 33.8 °F 27.7 °F 21.2 °F 60% 30.04 in - NE 6.9 mph - N/A   Clear
1:50 AM 33.8 °F 27.0 °F 21.2 °F 60% 30.01 in - NE 8.1 mph - N/A   Clear
2:00 AM 33 °F - 22 °F 54%  in 47 mi NE 4.5 mph - -   Partly Cloudy
2:20 AM 33.8 °F 27.7 °F 21.2 °F 60% 30.01 in 6.2 mi NE 6.9 mph - N/A   Mostly Cloudy
2:50 AM 33.8 °F 27.7 °F 23.0 °F 65% 30.01 in 6.2 mi NNE 6.9 mph - N/A   Mostly Cloudy
3:20 AM 33.8 °F 27.7 °F 21.2 °F 60% 30.01 in 6.2 mi NE 6.9 mph - N/A   Mostly Cloudy
3:50 AM 33.8 °F 27.0 °F 21.2 °F 60% 30.01 in 6.2 mi NNE 8.1 mph - N/A   Mostly Cloudy
4:20 AM 33.8 °F 26.4 °F 21.2 °F 60% 30.01 in 6.2 mi NNE 9.2 mph - N/A   Mostly Cloudy
4:50 AM 33.8 °F 26.4 °F 21.2 °F 60% 30.01 in 6.2 mi NNE 9.2 mph - N/A Rain , Snow Light Rain
5:20 AM 32.0 °F 25.6 °F 23.0 °F 69% 30.01 in 6.2 mi NNE 6.9 mph - N/A   Mostly Cloudy
5:50 AM 32.0 °F 27.5 °F 23.0 °F 69% 30.01 in 6.2 mi North 4.6 mph - N/A   Mostly Cloudy
6:20 AM 32.0 °F 26.4 °F 23.0 °F 69% 30.01 in 6.2 mi North 5.8 mph - N/A   Mostly Cloudy
6:50 AM 33.8 °F 28.6 °F 23.0 °F 65% 30.01 in 6.2 mi NNE 5.8 mph - N/A   Mostly Cloudy
7:20 AM 33.8 °F 27.7 °F 23.0 °F 65% 30.01 in 6.2 mi NNE 6.9 mph - N/A   Mostly Cloudy
7:50 AM 33.8 °F 27.7 °F 23.0 °F 65% 30.01 in 6.2 mi NNE 6.9 mph - N/A   Mostly Cloudy
8:00 AM 33 °F - 24 °F 59%  in 9 mi NNE 6.7 mph - -   Overcast
8:20 AM 33.8 °F 27.0 °F 23.0 °F 65% 30.01 in 6.2 mi NNE 8.1 mph - N/A   Mostly Cloudy
8:50 AM 33.8 °F 28.6 °F 23.0 °F 65% 30.01 in 6.2 mi NNE 5.8 mph - N/A   Mostly Cloudy
9:20 AM 33.8 °F 27.7 °F 23.0 °F 65% 30.01 in 6.2 mi NNE 6.9 mph - N/A   Overcast
9:50 AM 33.8 °F 27.7 °F 23.0 °F 65% 30.04 in 6.2 mi NNE 6.9 mph - N/A   Mostly Cloudy
10:20 AM 33.8 °F 26.4 °F 24.8 °F 70% 30.04 in 6.2 mi NNE 9.2 mph - N/A   Mostly Cloudy
10:50 AM 33.8 °F 27.0 °F 23.0 °F 65% 30.04 in 6.2 mi NE 8.1 mph - N/A   Mostly Cloudy
11:20 AM 33.8 °F 27.0 °F 23.0 °F 65% 30.04 in 6.2 mi NE 8.1 mph - N/A   Mostly Cloudy
11:50 AM 33.8 °F 27.7 °F 23.0 °F 65% 30.04 in 6.2 mi NNE 6.9 mph - N/A   Mostly Cloudy
12:20 PM 35.6 °F 29.2 °F 23.0 °F 60% 30.04 in - NE 8.1 mph - N/A   Clear
12:50 PM 35.6 °F 29.2 °F 23.0 °F 60% 30.04 in - NE 8.1 mph - N/A   Clear
1:20 PM 35.6 °F 29.2 °F 23.0 °F 60% 30.04 in - NE 8.1 mph - N/A   Clear
1:50 PM 35.6 °F 30.7 °F 23.0 °F 60% 30.04 in - NNE 5.8 mph - N/A   Clear
2:00 PM 36 °F - 24 °F 49%  in 44 mi NE 6.7 mph - -   Partly Cloudy
2:20 PM 35.6 °F 29.2 °F 23.0 °F 60% 30.04 in - NNE 8.1 mph - N/A   Clear
2:50 PM 35.6 °F 29.9 °F 23.0 °F 60% 30.04 in - NNE 6.9 mph - N/A   Clear
3:20 PM 35.6 °F 29.9 °F 24.8 °F 65% 30.04 in - NNE 6.9 mph - N/A   Clear
3:50 PM 35.6 °F 29.2 °F 24.8 °F 65% 30.04 in - NNE 8.1 mph - N/A   Clear
4:20 PM 35.6 °F 29.9 °F 24.8 °F 65% 30.04 in 6.2 mi NNE 6.9 mph - N/A   Mostly Cloudy
4:50 PM 35.6 °F 29.2 °F 24.8 °F 65% 30.04 in - NE 8.1 mph - N/A   Clear
5:20 PM 35.6 °F 29.9 °F 24.8 °F 65% 30.04 in 6.2 mi NNE 6.9 mph - N/A   Mostly Cloudy
5:50 PM 35.6 °F 29.9 °F 26.6 °F 70% 30.04 in 6.2 mi NNE 6.9 mph - N/A   Overcast
6:20 PM 35.6 °F 30.7 °F 26.6 °F 70% 30.04 in 6.2 mi NNE 5.8 mph - N/A   Overcast
6:50 PM 35.6 °F 29.9 °F 26.6 °F 70% 30.04 in 6.2 mi NNE 6.9 mph - N/A Rain , Snow Light Rain
7:20 PM 35.6 °F 30.7 °F 26.6 °F 70% 30.04 in 6.2 mi NNE 5.8 mph - N/A   Overcast
7:50 PM 35.6 °F 30.7 °F 26.6 °F 70% 30.04 in 6.2 mi NNE 5.8 mph - N/A Snow Light Snow Showers
8:00 PM 35 °F - 28 °F 65%  in 40 mi NE 4.5 mph - - Snow Light Snow
8:20 PM 35.6 °F 29.9 °F 26.6 °F 70% 30.04 in 6.2 mi NNE 6.9 mph - N/A Snow Light Snow
8:50 PM 33.8 °F 28.6 °F 28.4 °F 81% 30.04 in 6.2 mi NNE 5.8 mph - N/A Rain , Snow Light Snow
9:20 PM 33.8 °F 29.6 °F 30.2 °F 87% 30.04 in 3.7 mi NNE 4.6 mph - N/A Snow Light Snow
9:50 PM 32.0 °F 27.5 °F 30.2 °F 93% 30.04 in 3.1 mi NNE 4.6 mph - N/A Snow Light Snow
10:20 PM 32.0 °F 26.4 °F 30.2 °F 93% 30.04 in 3.1 mi NNE 5.8 mph - N/A Snow Light Snow
10:50 PM 32.0 °F 26.4 °F 30.2 °F 93% 30.01 in 3.1 mi NNE 5.8 mph - N/A Snow Light Snow
11:20 PM 32.0 °F 26.4 °F 30.2 °F 93% 30.01 in 3.7 mi NNE 5.8 mph - N/A Snow Light Snow
11:50 PM 32.0 °F 26.4 °F 32.0 °F 100% 30.01 in 4.3 mi NNE 5.8 mph - N/A Snow Light Snow